Weather History for KAQW - December, 2011

Change the Weather History Date:

Tuesday, December 6, 2011

  Actual Average Record
Temperature  
Mean Temperature 51 °F -  
Max Temperature 61 °F 38 °F 68 °F (2001)
Min Temperature 41 °F 23 °F 6 °F (2002)
Degree Days  
Heating Degree Days 14    
Growing Degree Days 1 (Base 50)    
Moisture  
Dew Point 47 °F    
Average Humidity 85    
Maximum Humidity 94    
Minimum Humidity 72    
Precipitation  
Precipitation 0.39 in - - ()
Sea Level Pressure  
Sea Level Pressure 30.00 in    
Wind  
Wind Speed 4 mph (West)    
Max Wind Speed 12 mph    
Max Gust Speed -    
Visibility 8 miles    
Events Rain    
Averages and records for this station are not official NWS values.
T = Trace of Precipitation, MM = Missing Value Source: NWS Daily Summary

Daily Weather History Graph

Daily Weather History Graph

Search for Another Location

Airport or City:

Trip Planner

Search our weather history database for the weather conditions in past years. The results will help you decide how hot, cold, wet, or windy it might be!

Date:

Astronomy

Dec. 06, 2011 Rise Set
Actual Time 7:08 AM EST 4:19 PM EST
Civil Twilight 6:36 AM EST 4:50 PM EST
Nautical Twilight 6:00 AM EST 5:26 PM EST
Astronomical Twilight 5:26 AM EST 6:00 PM EST
Moon 1:47 PM EST (12/6) 3:20 AM EST (12/6)
Length of Visible Light 10h 14m
Length of Day
9h 10m
Waxing Gibbous, 86% of the Moon is Illuminated
Dec 6
Waxing Gibbous
Dec 10
Full
Dec 17
Last Quarter
Dec 24
New
Jan 1
First Quarter

Hourly Weather History & Observations

Time (EST) Temp. Windchill Dew Point Humidity Pressure Visibility Wind Dir Wind Speed Gust Speed Precip Events Conditions
12:12 AM 51.8 °F - 44.6 °F 76% 30.14 in 10.0 mi Calm Calm - N/A   Overcast
12:52 AM 53.1 °F - 46.0 °F 77% 30.14 in 10.0 mi Calm Calm - N/A   Overcast
1:52 AM 57.0 °F - 48.9 °F 74% 30.12 in 10.0 mi SW 9.2 mph - N/A   Overcast
2:52 AM 57.0 °F - 48.0 °F 72% 30.11 in 10.0 mi Variable 4.6 mph - 0.00 in Rain Light Rain
3:52 AM 55.0 °F - 50.0 °F 83% 30.08 in 10.0 mi Variable 3.5 mph - 0.01 in Rain Light Rain
4:52 AM 52.0 °F - 50.0 °F 93% 30.06 in 5.0 mi Variable 3.5 mph - 0.01 in Rain Light Rain
5:52 AM 52.0 °F - 50.0 °F 93% 30.04 in 4.0 mi ENE 5.8 mph - 0.08 in Rain Light Rain
6:35 AM 53.6 °F - 51.8 °F 94% 30.03 in 5.0 mi Variable 4.6 mph - 0.06 in Rain Light Rain
6:49 AM 53.6 °F - 51.8 °F 94% 30.03 in 3.0 mi Calm Calm - 0.09 in Rain Light Rain
6:52 AM 53.1 °F - 51.1 °F 93% 30.04 in 3.0 mi Calm Calm - 0.09 in Rain Light Rain
7:52 AM 54.0 °F - 52.0 °F 93% 30.04 in 9.0 mi ESE 3.5 mph - 0.03 in   Overcast
8:52 AM 59.0 °F - 53.1 °F 81% 30.04 in 10.0 mi WSW 5.8 mph - N/A   Overcast
9:52 AM 61.0 °F - 53.1 °F 75% 30.03 in 10.0 mi Variable 3.5 mph - N/A   Overcast
10:50 AM 60.8 °F - 53.6 °F 77% 30.01 in 10.0 mi West 5.8 mph - N/A   Overcast
10:52 AM 60.1 °F - 52.0 °F 75% 30.01 in 10.0 mi Variable 4.6 mph - N/A   Overcast
11:27 AM 60.8 °F - 53.6 °F 77% 29.99 in 10.0 mi West 4.6 mph - N/A   Overcast
11:52 AM 61.0 °F - 53.1 °F 75% 29.97 in 10.0 mi Variable 3.5 mph - 0.00 in Rain Light Rain
12:09 PM 60.8 °F - 53.6 °F 77% 29.96 in 10.0 mi Variable 4.6 mph - 0.00 in   Overcast
1:52 PM 61.0 °F - 52.0 °F 72% 29.94 in 10.0 mi WSW 6.9 mph - N/A   Mostly Cloudy
2:00 PM 60.8 °F - 53.6 °F 77% 29.94 in 10.0 mi WSW 5.8 mph - N/A   Mostly Cloudy
2:52 PM 60.1 °F - 52.0 °F 75% 29.94 in 10.0 mi Calm Calm - N/A   Overcast
3:52 PM 59.0 °F - 53.1 °F 81% 29.94 in 10.0 mi WNW 5.8 mph - N/A   Overcast
4:52 PM 54.0 °F - 51.1 °F 90% 29.93 in 7.0 mi NW 4.6 mph - 0.01 in Rain Light Rain
5:40 PM 46.4 °F 42.4 °F 44.6 °F 93% 29.94 in 4.0 mi West 8.1 mph - 0.08 in Rain Rain
5:52 PM 46.0 °F 42.5 °F 44.1 °F 93% 29.95 in 5.0 mi West 6.9 mph - 0.10 in Rain Light Rain
6:52 PM 46.0 °F 42.5 °F 43.0 °F 89% 29.95 in 10.0 mi WSW 6.9 mph - 0.02 in Rain Light Rain
7:04 PM 46.4 °F 43.5 °F 42.8 °F 87% 29.95 in 10.0 mi West 5.8 mph - 0.00 in Rain Light Rain
7:32 PM 44.6 °F 42.2 °F 42.8 °F 93% 29.95 in 10.0 mi WNW 4.6 mph - 0.01 in   Overcast
7:52 PM 44.1 °F 40.8 °F 42.1 °F 93% 29.96 in 4.0 mi WNW 5.8 mph - 0.02 in Rain Light Rain
8:52 PM 44.1 °F 39.0 °F 42.1 °F 93% 29.96 in 10.0 mi West 9.2 mph - 0.01 in   Overcast
9:52 PM 43.0 °F 40.3 °F 41.0 °F 93% 29.96 in 10.0 mi WNW 4.6 mph - 0.01 in   Overcast
10:28 PM 42.8 °F 37.5 °F 39.2 °F 87% 29.95 in 6.0 mi West 9.2 mph - N/A   Overcast
10:35 PM 42.8 °F 37.5 °F 39.2 °F 87% 29.96 in 5.0 mi West 9.2 mph - N/A   Overcast
10:52 PM 41.0 °F 34.3 °F 39.0 °F 93% 29.97 in 4.0 mi West 11.5 mph - N/A   Overcast
10:59 PM 41.0 °F 35.2 °F 39.2 °F 93% 29.95 in 5.0 mi West 9.2 mph - N/A   Overcast
11:28 PM 41.0 °F 35.8 °F 37.4 °F 87% 29.95 in 10.0 mi WSW 8.1 mph - N/A   Overcast
11:50 PM 42.8 °F 41.1 °F 39.2 °F 87% 29.95 in 10.0 mi West 3.5 mph - N/A   Overcast
11:52 PM 42.1 °F 39.2 °F 39.0 °F 89% 29.96 in 10.0 mi WNW 4.6 mph - N/A   Overcast